Tracking 28790 objects as of 19-Apr-2024
HD Live streaming from Space Station
objects crossing your sky now

ONEWEB-0516

Track ONEWEB-0516 now!
10-day predictions
ONEWEB-0516 is classified as:


NORAD ID: 54134
Int'l Code: 2022-138X
Perigee: 1,191.5 km
Apogee: 1,194.3 km
Inclination: 87.9 °
Period: 109.1 minutes
Semi major axis: 7563 km
RCS: Unknown
Launch date: October 22, 2022
Source: United Kingdom (UK)
Launch site: SRIHARIKOTA (SRI)
Your satellite tracking list
Your tracking list is empty




NASA's NSSDC Master Catalog

Two Line Element Set (TLE):
1 54134U 22138X   24109.89441127  .00000125  00000-0  27935-3 0  9992
2 54134  87.9104 102.0720 0001852  91.1649 268.9696 13.19725981 72726
Source of the keplerian elements: AFSPC